This is the latest recevied weather packets stored in our database for station/object KI5NXU. If no packets are shown the sender has not sent any weather packets the latest 10 day(s).
| Time | Temp. | Humidity | Pressure | Rain* | Wind** | Luminosity | Snow |
|---|---|---|---|---|---|---|---|
| 1777331879 | 33.89° C | 24% | 1007.3 hPa | 0 mm | - | 212 W/m² | - |
| 1777331576 | 33.89° C | 29% | 1007.3 hPa | 0 mm | - | 236 W/m² | - |
| 1777331274 | 33.89° C | 29% | 1007.3 hPa | 0 mm | - | 246 W/m² | - |
| 1777330972 | 33.89° C | 26% | 1007.1 hPa | 0 mm | - | 252 W/m² | - |
| 1777330668 | 33.89° C | 28% | 1007.3 hPa | 0 mm | - | 280 W/m² | - |
| 1777330365 | 33.89° C | 24% | 1007.1 hPa | 0 mm | - | 301 W/m² | - |
| 1777330063 | 33.89° C | 28% | 1007.2 hPa | 0 mm | - | 308 W/m² | - |
| 1777329762 | 34.44° C | 27% | 1007.3 hPa | 0 mm | - | 327 W/m² | - |
| 1777329460 | 34.44° C | 24% | 1007.4 hPa | 0 mm | - | 373 W/m² | - |
| 1777329157 | 33.89° C | 26% | 1007.3 hPa | 0 mm | - | 368 W/m² | - |
| 1777328855 | 33.89° C | 22% | 1007.2 hPa | 0 mm | - | 399 W/m² | - |
| 1777328553 | 33.89° C | 26% | 1007.1 hPa | 0 mm | - | 387 W/m² | - |
| 1777328251 | 33.89° C | 24% | 1007.2 hPa | 0 mm | - | 409 W/m² | - |
| 1777327949 | 33.89° C | 24% | 1007.2 hPa | 0 mm | - | 437 W/m² | - |
| 1777327647 | 33.89° C | 25% | 1007.1 hPa | 0 mm | - | 447 W/m² | - |
| 1777327343 | 33.89° C | 27% | 1007.6 hPa | 0 mm | - | 490 W/m² | - |
| 1777327035 | 33.89° C | 25% | 1007.1 hPa | 0 mm | - | 496 W/m² | - |
| 1777326732 | 33.33° C | 27% | 1007.2 hPa | 0 mm | - | 494 W/m² | - |
| 1777326429 | 33.33° C | 28% | 1007.2 hPa | 0 mm | - | 499 W/m² | - |
| 1777326127 | 33.89° C | 28% | 1007.2 hPa | 0 mm | - | 481 W/m² | - |
| 1777325825 | 33.89° C | 26% | 1007.3 hPa | 0 mm | - | 485 W/m² | - |
| 1777325523 | 33.33° C | 25% | 1007.5 hPa | 0 mm | - | 488 W/m² | - |
| 1777325220 | 33.89° C | 29% | 1007.4 hPa | 0 mm | - | 509 W/m² | - |
| 1777324916 | 33.89° C | 28% | 1007.4 hPa | 0 mm | - | 491 W/m² | - |
| 1777324614 | 33.89° C | 28% | 1007.1 hPa | 0 mm | - | 541 W/m² | - |
* Rain latest hour (hover to see other rain measurements)
** Current wind speed in m/s (hover to see current wind gust speed)